星链-33910 (STARLINK-33910)

导读

STARLINK-33910是美国于2025年5月10日发射的星链卫星,隶属于SpaceX公司的星链星座项目。星链星座旨在构建全球卫星互联网星座,为全球偏远地区、海洋等传统通信覆盖盲区提供高速宽带互联网服务。该卫星入轨后,将和星链其他在轨卫星组网运营,进一步扩充星链星座覆盖范围与服务能力。

基本信息
目录编号:
63916
目录名称:
STARLINK-33910
国际标识:
2025-095AC
轨道中心:
EARTH
卫星名称:
星链-33910
卫星全名:
星链-33910 (STARLINK-33910)
卫星状态:
在轨 (已飞行482 天)
发射日期:
2025-05-10 UTC
国别 :
美国 (US)
星等 :
--
轨道信息
数据来源 国际轨道数据
星历时间: 2026-09-04T14:29:55+0800
6小时前
查看轨道信息
半长轴: 6861.159km
偏心率: 0.0001689
轨道倾角: 42.999°
近地点辐角 279.015°
升交点赤经 247.320°
平近点角 81.051°
近地点: 481.863km
远地点: 484.181km
周期: 94.266分钟
每日圈数: 15.275893
详细信息
固有亮度:
5
最大亮度:
2.5
卫星平台:
Starlink V1.0
覆盖范围:
全球
运营商:
太空探索技术公司
运营商所在国:
美国
制造商(研发单位):
太空探索技术公司
制造商所在国:
美国
使用方式:
暂无
卫星简介
Starlink 计划是 SpaceX 推出的全球卫星互联网项目,通过发射低轨道卫星,为全球尤其是偏远地区提供高速、低延迟的互联网服务。自 2019 年起,Starlink 已部署数千颗卫星,旨在缩小全球数字鸿沟,推动互联网普及。该项目还为军事、航空等行业提供通信支持,带来广泛经济效益。
2D轨道图
3D轨道图
轨道高度分析图
轨道倾角分析图
轨道综合分析图
查看轨道综合分析图
交会数据列表
事件ID 空间交会对象 最接近时刻(TCA) 交会距离 交会风险概率(CRP) 交会风险指数(CRI) 操作
CDM_260904-025605-610806-391622
2026-09-04T
02:56:33+0000
0.819 km
远距离
1.092724E-5 中风险 0.56
CDM_260904-051705-610806-391622
2026-09-04T
05:17:47+0000
0.944 km
远距离
6.763445E-6 低风险 0.52
CDM_260904-034305-610806-391621
2026-09-04T
03:43:38+0000
1.180 km
极远距离
3.182491E-6 低风险 0.45
CDM_260904-012205-610806-391621
2026-09-04T
01:22:24+0000
1.640 km
极远距离
1.174555E-6 低风险 0.36
CDM_260904-043005-610806-391622
2026-09-04T
04:30:42+0000
2.640 km
极远距离
4.520402E-7 极低风险 0.28